Flag for Canada Weather past 2 weeks in Halifax, Nova Scotia, Canada

Now
48 °F

Passing clouds.


Feels Like: 45 °F
Forecast: 47 / 67 °F
Wind: 7 mph from Southwest

Location: Halifax International Airport

Current Time: Sep 17, 2014 at 3:36:34 AM

Latest Report: Sep 17, 2014 at 3:00 AM


Visibility: 15 mi

Pressure: 29.94 "Hg

Humidity: 87%

Dew point: 45 °F

Location of HalifaxLocation

Historic Weather in Halifax — Graph

°F

Halifax temperature yesterday

Maximum temperature yesterday: 59 °F (at 2:00 PM)
Minimum temperature yesterday: 45 °F (at 3:00 AM)
Average temperature yesterday: 52 °F

Past Weeks' High & Low Weather Summary

 TemperatureHumidityPressure
High81 °F (Sep 4, 4:00 PM)100% (Sep 2, 2:00 AM)30.48 "Hg (Sep 2, 2:00 AM)
Low45 °F (Sep 16, 3:00 AM)28% (Sep 8, 6:00 PM)29.72 "Hg (Sep 3, 3:00 PM)
Average61 °F80%30.05 "Hg
* Reported Sep 2 2:00 AM — Sep 17 2:00 AM, Halifax, Weather by CustomWeather, © 2014

Note: Actual official high and low records may vary slightly from our data, if they occured in-between our weather recording intervals... More about our weather records

Advertising

Halifax weather history for previous 24 hours

 ConditionsComfort  
Time TempWeatherWind HumidityBarometerVisibility
2:00 AM
Sep 17
50 °FPassing clouds.8 mph76%29.95 "Hg15 mi
1:00 AM48 °FPassing clouds.6 mph87%29.95 "Hg15 mi
12:00 AM50 °FPassing clouds.6 mph82%29.96 "Hg15 mi
11:00 PM
Sep 16
50 °FPassing clouds.7 mph82%29.96 "Hg15 mi
10:00 PM52 °FPassing clouds.6 mph77%29.98 "Hg15 mi
9:00 PM54 °FPassing clouds.7 mph77%29.98 "Hg15 mi
8:00 PM55 °FPartly sunny.3 mph72%29.97 "Hg15 mi
7:00 PM57 °FPartly sunny.3 mph63%29.97 "Hg15 mi
6:00 PM59 °FBroken clouds.3 mph55%29.97 "Hg15 mi
5:00 PM59 °FPartly sunny.No wind51%29.98 "Hg15 mi
4:00 PM59 °FBroken clouds.6 mph55%29.99 "Hg15 mi
3:00 PM59 °FOvercast.3 mph55%29.99 "Hg15 mi
2:00 PM59 °FMore clouds than sun.5 mph55%30.01 "Hg15 mi
1:00 PM57 °FOvercast.2 mph59%30.02 "Hg15 mi
12:00 PM57 °FOvercast.7 mph55%30.03 "Hg15 mi
11:00 AM55 °FOvercast.7 mph63%30.05 "Hg15 mi
10:00 AM52 °FPartly sunny.5 mph72%30.06 "Hg15 mi
9:00 AM50 °FPartly sunny.7 mph82%30.06 "Hg15 mi
8:00 AM46 °FFog.5 mph93%30.06 "Hg15 mi
7:00 AM46 °FFog.5 mph87%30.06 "Hg15 mi
6:00 AM45 °FPassing clouds.6 mph93%30.06 "Hg15 mi
5:00 AM45 °FClear.6 mph93%30.06 "Hg15 mi
4:00 AM46 °FClear.7 mph87%30.06 "Hg15 mi
3:00 AM45 °FClear.7 mph87%30.07 "Hg15 mi
Weather by CustomWeather, © 2014

See weather overviewHow to use our weather pages